GFSMW_sfc_rhum_219.txt.gz
RH
70 90 94 94 94 95 95 97 99 99 99 99 100 100 99 99 99 99 97 96 97 96 97 95 97 96 96 94 94 97 95 98 97 97 97 89 88 82 75 74 86 84 93
90 90 97 99 94 96 96 98 99 99 99 98 96 96 98 98 98 97 97 96 96 96 94 95 97 97 98 97 97 96 97 97 96 96 93 98 95 93 88 79 76 85 85
93 96 98 99 98 98 99 98 98 98 98 97 97 96 95 95 95 96 97 93 85 93 97 96 94 96 97 95 94 94 94 96 98 95 95 98 97 96 95 90 81 80 85
91 94 97 98 99 100 99 98 98 97 96 95 94 93 96 96 97 96 95 93 88 89 91 96 96 96 98 97 96 94 96 94 95 96 95 95 91 94 98 92 84 78 81
92 93 94 94 94 97 98 97 95 95 95 95 94 96 94 96 96 96 93 93 93 91 91 94 94 96 96 96 97 97 97 95 91 92 98 98 95 93 93 96 95 77 77
88 89 89 88 89 91 95 96 95 94 94 94 93 92 92 94 98 98 98 98 97 96 94 94 96 96 96 97 97 96 97 98 95 93 89 91 95 97 96 94 89 82 86
84 84 81 81 88 89 89 89 88 88 93 94 92 92 92 92 94 95 97 96 97 97 97 96 96 97 97 97 98 98 99 99 99 97 95 95 90 90 84 88 89 92 97
74 74 67 68 72 76 82 88 89 85 89 92 91 93 94 96 96 96 97 97 97 96 94 96 97 96 96 97 98 99 99 98 99 99 98 96 96 96 91 89 90 99 99
67 66 66 67 66 66 68 75 78 79 81 87 92 94 95 96 96 96 96 96 96 96 95 96 96 96 96 97 98 99 97 99 98 98 99 98 97 95 91 87 86 86 98
66 68 67 66 56 49 52 59 68 68 69 72 79 89 93 95 96 97 96 96 95 95 95 96 97 97 97 97 97 98 98 99 98 98 98 98 98 95 94 92 86 81 83
55 55 50 46 44 45 47 51 54 53 54 66 81 90 90 94 96 98 96 96 96 96 96 96 97 98 98 98 99 98 97 98 98 98 99 99 98 99 94 90 88 91 89
44 39 40 44 44 44 43 44 50 59 64 70 80 85 87 91 96 97 96 97 97 97 96 98 98 97 98 98 98 98 96 98 98 98 99 98 97 99 96 93 92 92 92
39 41 43 47 52 59 62 61 62 64 68 68 77 80 84 91 94 95 96 97 98 98 98 98 97 92 96 98 97 95 96 97 96 94 97 97 96 98 99 96 96 95 92
36 45 62 68 66 63 65 64 64 68 70 72 75 81 84 86 90 92 95 97 98 97 98 97 94 97 97 95 95 95 97 97 95 96 94 92 98 96 99 96 96 94 94
42 54 63 69 64 64 64 66 70 71 73 73 75 77 80 83 85 91 95 97 97 95 97 98 98 97 96 95 96 94 97 97 97 96 93 96 93 96 98 97 98 94 94
55 57 56 54 55 56 61 63 66 71 74 75 77 77 79 82 86 87 92 98 97 98 98 98 98 99 97 95 96 96 98 97 98 99 98 97 96 98 98 100 98 91 95
55 58 58 56 55 57 61 64 66 71 75 76 75 80 85 88 89 89 92 97 98 97 98 98 98 99 99 98 96 97 98 99 99 99 98 96 94 95 93 98 99 96 90
58 56 55 54 56 56 62 67 72 76 79 82 87 88 89 92 91 91 96 98 96 99 99 99 99 99 99 99 97 97 98 99 99 96 97 97 97 96 98 96 96 96 94
59 55 55 56 58 61 62 69 74 79 82 86 88 88 92 95 93 93 93 98 98 99 99 99 99 99 99 99 98 98 99 98 98 97 96 94 92 86 90 98 99 100 99
53 54 54 56 59 62 70 76 80 81 83 84 89 93 95 94 94 94 94 98 99 99 100 100 99 98 98 98 98 97 97 98 98 97 95 90 86 87 89 92 93 96 96
43 41 44 44 43 59 76 83 86 85 85 95 98 95 92 93 96 95 95 96 98 100 100 100 100 100 98 99 97 96 96 96 98 96 95 93 88 89 84 85 90 87 93
35 40 58 63 69 75 85 83 88 86 97 99 99 96 97 93 91 94 96 98 99 100 100 100 100 100 100 99 98 96 93 96 97 97 98 95 89 89 86 88 87 89 93
51 66 70 75 80 80 80 88 85 88 96 99 100 100 99 98 95 96 98 99 99 100 99 99 99 99 100 100 98 97 97 99 99 99 98 96 90 91 94 90 89 94 94
75 79 87 88 86 89 92 93 93 92 99 98 98 99 100 98 99 100 100 100 100 100 99 99 99 99 99 100 100 100 100 100 99 99 100 99 98 95 98 97 97 96 95
91 91 91 92 90 90 95 95 94 94 98 96 98 98 99 99 100 100 100 100 100 100 100 100 99 99 99 99 99 98 99 99 99 99 99 99 98 98 99 99 99 98 96
87 88 90 92 91 96 88 86 88 92 93 97 96 98 98 100 100 100 100 99 100 99 99 99 100 100 99 99 100 100 100 100 98 99 98 98 98 98 99 98 99 99 98

GFSMW_sfc_rhum_225.txt.gz
RH
22 43 61 64 57 69 72 76 83 88 92 97 95 97 98 98 96 94 89 82 82 84 82 78 85 87 88 94 92 90 91 96 95 98 97 98 93 97 95 90 88 91 91
25 43 63 75 73 67 74 78 79 91 91 91 91 92 94 94 82 77 80 79 81 84 86 88 87 86 91 92 89 88 93 94 95 96 94 98 97 96 95 93 93 96 95
28 56 73 78 86 84 84 83 83 91 89 86 91 92 88 86 76 75 74 76 82 84 86 84 87 88 88 90 89 87 88 93 96 94 92 98 94 91 95 93 95 96 98
62 76 81 83 86 90 87 84 90 91 90 86 89 87 86 70 67 69 68 67 75 74 73 75 76 81 85 92 90 84 90 93 98 98 94 93 89 92 96 95 94 96 97
70 74 79 81 84 94 92 91 89 89 93 85 86 88 80 77 74 76 74 73 74 73 71 75 77 80 84 86 89 91 94 95 96 97 99 96 97 95 93 97 97 98 97
83 83 87 92 95 95 93 92 92 90 89 84 83 78 73 74 76 76 76 76 77 77 77 77 81 82 84 86 85 86 88 88 94 96 96 96 92 95 96 91 94 92 94
85 87 93 94 95 95 92 90 87 90 84 80 77 72 68 67 64 63 68 70 74 75 76 79 83 83 82 82 84 85 85 85 89 89 90 94 94 95 91 92 97 96 98
79 81 82 84 85 87 85 85 79 71 72 71 68 68 65 62 61 62 64 64 67 67 76 78 78 78 79 81 84 86 86 87 90 88 90 87 84 84 95 93 96 99 98
74 75 74 76 78 79 79 74 63 53 60 64 66 67 68 71 68 71 73 73 77 80 82 80 79 79 80 81 83 85 88 91 91 92 91 92 89 90 86 92 91 91 99
68 67 65 66 65 64 63 67 62 53 54 60 64 66 68 70 72 74 75 78 79 79 81 81 81 81 81 81 82 84 85 91 90 89 94 89 84 82 82 88 90 89 90
64 62 58 55 52 52 54 59 60 58 60 58 60 65 64 66 72 78 76 74 78 77 77 78 81 81 80 80 83 83 82 87 89 88 87 86 84 84 91 94 96 93 90
59 58 55 54 54 54 51 52 54 56 53 50 52 63 71 71 71 69 68 71 75 76 76 78 80 81 80 80 83 89 87 88 87 86 88 86 86 93 93 96 95 97 93
56 59 56 56 51 55 53 45 44 47 51 55 66 70 66 62 62 62 65 68 69 70 72 78 83 82 85 87 86 88 92 91 94 90 85 81 84 92 95 95 94 95 94
51 53 55 56 53 49 47 47 60 65 60 57 58 60 62 63 61 62 66 66 66 69 72 76 82 86 86 86 90 91 92 92 93 92 92 89 89 93 93 94 93 97 97
44 51 56 50 49 52 59 58 59 60 60 58 54 55 60 58 61 66 67 69 74 72 72 77 86 92 92 90 92 94 97 96 94 95 93 93 87 90 94 94 96 96 97
44 42 44 45 48 53 55 60 63 65 59 50 47 52 56 59 65 68 70 72 73 71 77 81 86 92 92 98 100 98 98 95 95 97 95 93 92 91 95 97 93 91 97
49 45 41 46 53 55 59 59 56 59 64 53 55 55 57 61 66 66 68 68 71 74 79 83 90 95 96 100 99 99 98 98 97 98 98 97 95 97 97 100 97 93 93
51 48 46 53 58 53 52 58 51 56 59 57 55 58 64 65 67 72 74 74 73 78 78 83 85 93 97 100 100 100 98 98 98 97 99 98 98 97 100 99 98 96 96
54 51 52 52 53 50 50 50 53 57 64 58 58 62 67 69 74 74 77 82 86 86 83 90 91 95 97 100 100 99 99 98 99 99 100 97 98 97 97 100 100 100 100
53 53 50 49 51 55 55 56 56 63 61 60 64 67 73 78 74 77 84 88 90 96 100 100 98 96 93 98 99 98 97 99 98 99 98 97 92 98 99 98 98 100 100
50 48 44 44 46 50 53 59 85 74 66 67 70 74 80 77 75 78 79 86 96 100 100 100 100 99 98 98 99 99 98 98 98 98 99 96 95 97 98 96 97 97 98
45 38 39 38 46 48 57 67 89 88 77 85 85 81 89 81 79 85 82 83 92 100 100 100 100 99 100 99 99 99 98 98 98 98 98 96 92 91 96 99 98 98 98
37 37 40 64 70 68 66 70 85 89 98 91 99 97 95 96 90 95 96 94 94 98 100 100 100 100 100 100 99 99 99 98 99 100 97 95 92 90 96 92 96 98 100
52 58 62 68 72 72 80 83 82 84 84 86 95 97 100 96 100 98 97 97 100 100 100 100 100 100 100 100 100 100 100 99 100 99 100 98 99 98 98 100 99 100 100
72 69 72 74 74 76 78 76 78 74 76 75 80 88 88 92 99 100 100 100 100 100 100 100 100 100 100 100 99 99 100 100 100 100 100 100 100 100 100 99 97 96 98
72 70 74 73 72 73 74 76 81 80 80 83 86 93 96 99 99 100 100 99 100 99 98 99 100 100 99 98 98 98 99 99 100 100 100 100 100 100 99 98 96 94 97

GFSMW_sfc_rhum_228.txt.gz
RH
11 15 27 32 37 40 46 52 60 66 82 91 91 89 88 92 92 87 83 85 70 67 66 56 56 68 72 70 75 88 94 94 86 93 91 86 76 77 67 78 83 80 79
13 16 23 33 40 40 48 53 57 64 80 83 74 79 84 89 76 78 75 70 63 62 63 73 75 72 76 79 79 82 92 88 84 87 89 96 94 93 79 85 92 92 88
15 15 23 33 40 44 43 49 54 66 79 75 78 78 81 74 80 70 60 60 60 62 74 69 65 63 71 77 82 87 90 93 91 81 73 90 92 83 74 84 89 94 98
24 26 32 37 42 48 54 50 52 78 80 75 80 76 71 64 58 57 45 43 57 58 59 61 55 58 54 66 70 72 89 87 85 94 84 85 79 77 89 81 87 86 94
30 32 39 40 44 56 75 70 72 80 84 78 69 70 74 58 54 44 44 44 51 54 52 55 58 60 57 59 66 75 80 81 80 92 90 92 96 89 88 88 93 93 89
31 37 45 55 58 71 85 86 87 90 88 82 78 75 69 59 43 41 41 40 44 49 57 59 61 62 62 64 65 69 73 76 78 84 88 84 93 94 94 96 81 88 75
35 44 51 58 68 83 88 90 90 92 84 85 76 68 59 46 40 38 35 38 41 45 53 59 64 60 63 67 70 70 69 74 80 80 81 77 82 76 78 86 92 94 96
37 46 51 58 62 80 83 89 87 86 81 80 69 51 40 36 32 37 34 38 38 41 47 58 60 62 64 70 67 65 66 77 86 81 80 74 70 75 89 86 90 96 98
34 42 47 57 64 73 76 78 75 71 67 58 46 46 45 42 40 47 53 46 50 49 58 61 62 63 67 67 69 67 70 80 83 88 86 86 81 78 76 85 86 90 99
33 39 45 51 54 57 61 68 65 51 43 41 42 42 47 51 50 54 57 58 57 59 60 61 62 66 68 69 70 69 69 74 82 80 84 84 81 78 79 79 82 86 86
30 35 41 45 48 51 54 59 52 38 37 40 44 52 56 55 57 56 54 56 60 58 55 58 58 64 64 64 69 71 69 71 76 77 84 83 78 80 81 86 77 86 90
29 31 35 40 44 45 46 44 43 41 42 46 48 54 54 55 57 57 54 54 55 53 50 52 59 57 57 61 64 67 66 72 76 79 82 74 71 77 76 79 86 95 94
28 30 36 39 39 41 38 36 38 43 45 42 48 53 57 56 54 52 49 44 42 43 48 46 49 51 56 58 63 67 72 77 85 83 81 84 81 78 82 82 91 93 93
28 28 31 36 41 41 37 36 40 44 42 40 44 53 55 52 49 45 44 46 44 45 43 44 46 52 57 63 74 78 81 88 88 84 87 86 83 85 91 87 90 90 95
30 31 32 34 33 43 44 41 40 44 44 44 48 53 54 46 45 47 45 47 50 48 45 46 49 52 64 76 82 88 91 94 93 89 89 92 89 91 91 90 91 95 96
30 31 32 33 34 36 43 42 44 46 47 46 42 42 43 42 46 46 50 50 50 47 51 54 56 64 77 90 97 95 94 94 95 97 91 91 94 92 95 94 97 93 95
32 34 35 36 38 38 40 43 44 46 40 35 34 39 39 39 42 44 45 45 49 55 60 61 65 82 76 94 97 100 97 98 96 98 96 94 90 96 83 94 98 96 92
36 39 37 37 37 38 42 43 40 38 37 36 34 38 42 42 44 47 49 52 55 61 71 73 77 86 76 99 100 100 98 99 97 98 98 93 94 94 99 100 99 94 94
37 40 40 39 43 42 43 38 35 38 38 36 37 40 45 45 46 51 52 60 73 74 70 83 95 96 89 94 100 98 99 99 99 99 98 87 97 94 95 100 100 100 100
37 36 38 40 42 43 42 41 37 40 37 40 41 45 50 49 50 53 61 64 67 68 82 92 90 94 86 92 98 95 95 98 98 99 98 97 92 98 98 98 98 100 100
38 40 41 42 43 43 40 47 58 46 43 48 50 52 51 53 53 58 61 66 71 77 98 94 98 87 84 86 97 98 97 97 98 98 98 94 98 97 97 97 97 96 98
41 37 38 37 38 36 38 48 72 74 59 65 61 58 62 62 57 64 67 69 76 90 100 100 100 90 92 95 97 96 99 99 98 99 99 98 97 95 98 99 99 99 98
36 31 30 36 40 36 37 49 69 70 79 72 93 85 83 86 82 80 82 87 84 86 89 92 99 99 98 100 99 99 98 100 100 100 98 98 95 95 99 98 99 98 100
30 26 33 40 49 48 49 57 62 64 64 65 69 70 85 79 92 89 91 92 92 97 100 100 100 100 100 100 100 100 100 99 100 100 100 100 99 100 99 100 100 100 100
33 35 38 47 54 59 61 59 59 58 57 58 58 60 68 76 82 100 100 100 100 100 100 100 100 100 100 100 99 100 100 100 100 100 100 100 100 100 100 100 100 100 99
48 51 56 56 59 57 57 60 64 61 60 60 59 74 80 85 90 98 100 99 100 99 98 98 100 100 99 98 96 98 98 98 100 100 100 100 100 100 100 100 100 100 100

GFSMW_sfc_rhum_231.txt.gz
RH
9 9 14 16 19 24 31 37 47 59 80 86 86 84 85 82 85 73 72 70 65 68 64 48 46 51 53 59 64 67 78 84 77 94 84 81 74 74 66 63 60 68 66
9 10 11 19 23 26 32 37 43 52 72 80 79 75 75 76 72 72 71 68 69 63 59 51 48 55 66 69 69 67 77 68 68 81 85 88 79 72 66 66 74 81 78
12 12 13 18 27 34 36 36 40 47 76 81 73 69 73 74 72 76 68 67 62 60 54 52 56 54 60 54 57 60 62 64 61 70 75 66 68 53 57 70 78 87 92
15 15 15 18 25 30 33 33 35 46 78 84 77 77 75 69 64 62 73 63 57 49 51 53 51 52 46 49 51 51 63 65 70 71 73 80 71 79 71 63 69 82 88
17 18 23 27 27 32 46 49 40 41 72 85 80 78 68 59 66 72 62 55 52 47 45 49 49 52 50 55 62 64 62 63 81 71 80 80 85 84 90 83 64 73 76
18 21 26 33 34 43 60 64 54 62 73 85 84 79 76 73 63 65 53 45 43 47 50 48 54 56 58 61 61 64 64 66 67 69 82 79 83 93 93 95 83 80 73
19 23 26 32 38 50 67 78 74 83 81 90 85 79 72 77 67 52 39 37 38 40 47 53 59 54 62 60 61 64 69 68 70 73 67 69 76 79 81 88 92 86 89
22 24 27 32 37 52 67 82 86 89 90 90 84 73 78 71 50 40 31 32 33 33 39 47 52 54 55 59 62 64 66 69 73 75 75 68 65 67 74 79 84 97 93
20 23 26 35 41 49 60 77 82 82 83 83 78 80 66 51 38 42 39 37 38 33 42 49 56 60 60 60 63 64 68 70 75 78 79 78 72 70 67 79 86 85 97
20 22 25 31 37 43 53 68 72 70 75 80 74 59 45 41 38 42 47 41 43 48 52 58 62 60 59 60 62 64 65 68 71 80 85 85 83 83 80 83 79 85 90
20 22 27 31 34 39 43 52 64 61 64 62 53 49 48 47 47 48 46 48 52 54 54 56 55 55 54 55 61 63 64 64 68 79 86 85 85 87 81 79 73 76 82
20 21 23 27 33 38 41 44 50 52 48 45 43 50 53 55 53 51 49 53 57 56 54 51 47 43 42 46 49 57 55 62 66 69 79 84 77 83 83 78 79 85 80
23 23 24 24 25 32 38 39 43 49 44 38 42 52 60 55 51 49 50 52 49 47 46 41 41 37 43 42 47 51 54 58 63 73 80 77 82 88 90 95 92 80 85
21 22 25 26 28 30 30 34 38 45 43 38 46 54 54 50 48 49 50 49 43 41 38 37 37 44 41 43 46 48 58 73 85 90 90 87 84 83 86 86 83 86 94
22 24 27 27 27 30 30 34 36 35 38 41 43 49 53 48 47 52 50 48 46 41 38 40 42 45 49 46 61 73 80 78 88 93 91 89 89 93 88 89 87 92 97
22 22 23 25 27 27 28 30 37 38 41 44 46 44 47 48 52 59 46 46 45 38 42 46 49 59 52 79 92 90 82 88 86 92 91 87 97 94 95 93 95 95 96
24 25 26 27 28 30 30 32 36 41 43 43 39 44 48 44 53 44 40 39 40 43 48 52 55 64 66 89 96 96 86 97 98 98 96 94 91 97 90 96 97 97 97
24 26 28 31 31 31 33 34 36 42 46 43 38 38 42 40 39 39 39 43 42 47 52 62 67 71 70 95 99 99 97 99 98 98 98 97 97 93 97 97 98 97 97
28 30 30 31 32 33 34 37 40 43 45 36 32 31 34 36 38 40 42 44 52 60 62 63 67 75 75 88 96 96 87 98 98 99 99 98 98 94 95 100 100 100 100
28 27 26 29 35 38 39 43 44 41 35 33 32 32 36 35 37 39 44 53 55 58 68 67 73 79 79 86 96 94 90 90 88 94 97 99 98 97 97 97 99 100 100
26 27 30 32 36 40 41 43 48 43 34 35 33 38 39 40 38 42 48 55 62 74 91 84 80 75 78 82 93 94 88 96 99 99 99 98 98 97 96 97 96 98 98
30 31 32 35 37 38 40 42 64 54 43 45 45 46 47 45 43 51 53 56 71 84 86 92 93 85 87 92 93 97 96 94 99 99 99 99 98 97 96 99 98 98 98
31 30 30 36 38 35 36 45 60 50 59 57 69 67 70 70 68 69 68 80 74 78 91 98 88 90 89 90 99 99 99 98 100 100 99 98 98 97 99 99 99 98 99
32 29 31 34 34 30 30 45 49 57 60 70 72 75 78 70 83 82 94 88 91 95 100 99 100 98 95 97 100 100 100 99 100 100 100 100 100 100 99 100 100 100 99
35 30 30 35 37 40 48 52 54 53 51 51 52 54 56 66 72 88 100 100 100 100 100 100 99 100 100 100 98 99 100 100 100 100 100 100 100 100 100 100 100 99 99
31 30 32 36 44 47 51 56 59 54 54 56 54 62 70 78 84 87 98 100 100 99 99 96 100 100 99 98 96 95 98 98 99 100 100 100 100 100 100 99 99 99 99

GFSMW_sfc_rhum_237.txt.gz
RH
17 19 20 23 35 51 54 71 85 91 90 87 88 84 84 85 89 93 90 92 92 91 93 94 93 93 92 93 92 94 91 93 93 95 97 97 96 96 97 96 96 91 86
17 16 20 25 32 48 54 61 82 90 85 81 80 79 82 92 83 89 84 84 90 91 91 92 94 89 92 94 91 91 95 95 95 96 97 97 92 96 95 97 94 94 94
17 17 19 35 44 56 57 64 74 87 85 83 83 95 92 95 95 90 80 80 90 89 88 91 92 88 92 89 92 92 92 95 93 92 93 96 95 96 90 94 96 95 96
21 23 34 42 46 57 62 71 75 85 87 87 87 90 89 88 85 83 82 92 88 90 90 91 89 90 86 85 91 85 90 92 93 92 90 93 94 96 97 91 93 95 96
24 27 30 36 47 54 56 63 77 88 88 89 88 88 90 85 88 91 89 93 94 92 90 94 94 93 87 88 84 87 92 94 94 94 94 92 96 96 100 93 95 93 97
31 34 37 38 44 69 83 83 83 85 90 92 92 93 93 92 96 94 95 94 93 93 97 93 94 87 80 78 82 83 88 93 94 93 94 94 96 96 98 100 95 95 94
30 46 48 49 57 82 85 85 85 89 95 94 94 94 94 94 91 91 92 94 98 97 94 95 90 84 81 82 85 88 90 92 94 93 95 95 96 95 96 97 95 94 95
32 39 47 52 54 79 87 87 87 89 96 96 95 94 93 92 89 92 95 95 92 91 94 92 86 81 83 87 87 89 91 92 93 92 95 96 92 95 96 96 98 97 97
34 34 47 57 60 78 88 90 91 92 93 95 96 97 96 93 95 94 92 88 90 86 86 88 89 85 86 84 85 88 89 90 92 94 95 96 96 97 96 96 97 98 98
30 39 48 57 64 74 86 92 92 92 90 93 95 95 96 96 94 92 87 85 80 76 90 90 85 84 85 82 84 89 86 88 93 93 94 95 97 94 91 92 92 95 92
31 39 48 55 60 71 84 90 92 92 93 94 96 96 95 94 92 90 86 83 83 83 84 83 84 83 81 82 87 88 86 88 90 92 94 94 95 97 97 97 95 94 97
37 38 40 52 60 68 75 86 90 91 88 91 94 95 96 95 87 83 78 78 76 83 82 84 83 82 79 70 66 67 70 75 78 81 89 90 90 94 97 98 98 98 98
31 36 39 45 47 57 64 76 83 88 84 89 93 94 97 89 78 74 74 79 78 80 80 78 72 63 62 60 62 69 74 74 80 86 91 92 92 94 96 98 99 99 98
34 37 41 41 46 46 50 54 66 83 82 85 92 95 91 76 75 79 87 83 79 81 73 67 65 66 61 63 72 74 79 87 88 88 91 94 94 96 95 96 97 98 99
33 35 38 36 38 45 48 49 62 68 83 82 85 86 79 78 81 84 86 85 77 72 66 67 65 68 72 74 85 83 88 91 92 92 93 94 95 94 97 98 98 98 98
28 28 32 33 31 33 47 51 54 63 75 81 74 80 81 80 82 86 82 73 72 67 65 69 74 77 78 94 92 95 94 95 96 96 94 95 96 96 98 100 98 95 98
33 28 31 36 42 45 51 52 53 62 71 76 75 78 77 78 83 75 68 69 73 70 72 75 78 88 90 90 92 100 96 97 96 96 96 94 98 98 98 99 98 98 97
30 35 40 48 52 52 53 55 51 56 69 72 71 74 76 79 74 68 65 68 66 69 75 85 86 84 81 87 98 99 99 97 96 97 99 99 99 98 99 98 99 98 97
41 47 52 52 54 52 54 53 54 69 69 68 67 74 71 70 67 66 69 68 68 76 81 81 84 86 84 94 95 99 96 97 97 96 96 99 99 98 99 100 100 100 100
42 44 49 50 52 55 55 58 61 71 70 71 71 67 64 64 65 70 70 74 76 79 87 86 85 84 83 91 95 90 92 95 94 93 96 98 99 99 99 99 99 100 100
40 42 43 49 53 58 60 66 70 70 72 70 64 62 58 63 63 70 74 79 86 90 91 90 92 90 91 94 92 92 94 98 99 98 97 97 98 98 99 98 98 99 99
40 39 45 48 56 61 64 75 75 75 66 69 68 68 66 56 60 70 79 81 87 93 95 95 97 98 93 94 92 93 95 97 100 99 98 99 98 97 99 99 98 99 99
46 42 42 56 59 60 72 74 80 77 79 76 85 81 82 83 82 84 91 94 94 96 97 100 100 100 99 99 94 98 95 93 100 99 99 99 97 97 100 99 99 99 99
80 81 71 54 57 60 69 76 74 77 81 86 90 89 89 91 93 97 98 98 99 100 100 100 100 99 99 100 100 100 99 98 99 100 100 100 100 100 100 100 99 99 99
83 85 88 72 74 67 71 72 73 75 79 84 84 86 89 91 96 98 100 100 100 100 100 100 99 100 100 100 99 97 97 99 100 100 100 100 100 100 100 100 99 99 99
79 81 85 76 71 69 70 73 75 73 77 82 87 95 94 96 98 100 100 100 100 100 100 100 100 99 99 98 91 84 88 92 98 100 99 99 99 99 99 99 99 99 99

GFSMW_sfc_rhum_243.txt.gz
RH
19 19 35 40 44 55 68 77 84 84 89 92 94 93 95 94 95 96 94 95 95 95 96 95 96 96 96 93 95 97 96 96 96 96 95 95 95 96 97 97 97 96 95
20 20 23 28 39 52 64 71 80 85 89 86 88 88 88 91 94 95 97 95 95 95 96 96 96 94 96 96 96 93 98 96 97 95 96 88 72 90 94 96 97 95 96
19 19 26 46 45 53 63 69 77 84 89 86 89 97 97 97 97 98 98 97 94 93 94 94 93 94 95 95 96 95 94 97 98 92 83 94 85 94 94 91 95 93 94
22 21 26 50 63 60 60 67 73 82 91 90 92 91 86 90 83 86 92 97 95 94 93 92 93 93 95 95 96 97 96 96 97 99 95 90 84 95 95 94 94 94 94
26 25 28 33 52 70 72 75 85 93 93 95 93 93 92 94 96 97 96 96 98 95 94 94 94 95 97 97 98 99 98 98 99 99 97 97 98 97 98 97 96 94 94
47 53 62 73 83 91 94 97 98 98 98 96 96 95 94 96 98 98 98 98 96 95 94 93 93 94 95 98 97 97 97 99 100 99 96 92 94 96 97 98 98 98 96
52 55 63 77 88 93 96 97 96 98 97 96 94 94 94 96 96 96 96 97 96 96 95 92 93 94 96 97 98 97 95 98 98 95 95 95 95 95 96 98 97 98 96
40 51 61 70 80 90 94 96 96 94 96 96 96 95 95 97 96 95 96 96 95 93 91 93 95 96 98 97 96 97 99 99 96 95 97 97 97 97 97 92 93 94 93
37 40 52 58 73 86 90 93 95 95 97 96 96 96 96 96 96 95 95 93 92 94 93 96 97 99 98 98 99 99 99 99 95 95 96 96 96 97 96 95 98 97 95
36 38 42 52 62 78 88 91 91 89 92 96 97 97 94 91 91 94 96 95 94 96 99 99 98 98 98 97 98 99 96 93 95 97 95 95 95 94 97 98 99 99 98
36 37 41 46 55 67 84 89 91 89 92 94 96 96 96 97 96 96 96 96 96 98 98 98 98 97 98 98 98 94 90 91 94 94 92 90 94 98 99 98 99 99 98
40 40 39 42 56 61 62 77 81 87 84 88 95 97 97 98 98 98 97 98 98 98 97 96 97 97 96 96 93 90 88 89 90 87 87 88 93 96 94 96 96 98 97
39 38 44 45 45 55 62 65 73 80 74 86 90 95 96 98 97 96 97 98 97 96 97 96 95 94 95 92 87 84 82 78 81 83 86 91 94 93 94 94 96 98 98
38 33 36 42 49 50 55 60 69 79 76 92 91 91 93 94 94 94 98 98 95 93 93 94 94 92 89 83 74 75 80 82 84 90 92 92 92 93 95 97 97 97 98
34 34 35 40 46 55 55 58 63 65 79 91 92 90 89 93 94 97 98 98 95 89 89 91 91 84 76 69 77 82 86 90 94 93 93 93 95 95 97 99 98 99 99
40 40 38 37 39 45 51 50 55 59 75 89 90 88 93 95 96 97 98 96 95 93 89 90 82 78 68 87 88 89 92 92 92 94 96 96 95 96 98 99 100 99 99
53 57 58 55 52 51 52 55 54 64 88 89 87 90 92 95 96 96 96 95 94 89 87 83 77 78 82 89 92 94 94 95 96 96 97 97 96 96 96 99 100 100 100
50 52 58 62 68 67 65 68 70 74 81 87 92 94 95 96 96 97 95 94 93 87 84 82 80 83 86 94 96 99 96 96 96 96 97 96 96 96 97 99 99 99 98
60 58 57 62 66 66 67 65 66 71 74 77 80 86 91 94 95 96 96 95 92 89 85 79 89 89 93 98 100 98 98 98 97 97 97 98 99 97 97 100 100 100 100
70 63 61 62 66 71 69 64 70 69 71 80 84 86 90 91 93 92 93 92 91 89 89 90 89 95 96 99 99 96 97 98 98 96 95 95 95 97 100 99 99 100 100
72 72 61 64 68 71 70 73 77 77 81 83 79 79 81 85 82 84 83 87 91 95 96 97 97 96 94 97 98 97 98 98 97 97 98 97 95 95 96 98 99 98 99
79 81 80 67 67 70 72 74 75 82 79 82 79 78 78 74 79 81 87 90 94 97 98 99 100 99 98 99 99 99 97 95 97 98 99 99 95 93 96 99 99 100 100
86 86 90 87 73 74 70 68 71 79 80 81 89 91 91 92 92 93 97 98 95 96 98 99 100 100 100 100 99 98 96 96 99 100 98 95 95 96 99 99 99 100 100
86 87 87 83 82 78 80 88 89 88 88 89 92 94 95 96 97 98 99 97 99 100 100 100 100 100 100 100 100 100 100 96 98 100 100 100 100 100 100 100 100 100 99
86 88 92 91 94 90 89 89 90 90 91 93 92 95 95 96 98 99 100 100 100 100 100 100 100 100 100 100 99 98 100 99 98 99 100 100 100 100 100 100 99 99 99
90 92 96 96 96 94 94 91 88 87 91 96 97 98 98 98 99 99 99 99 100 100 100 100 100 100 100 98 98 96 91 89 92 99 99 99 99 99 99 99 99 100 99

GFSMW_sfc_rhum_246.txt.gz
RH
33 37 46 52 58 67 80 86 92 90 92 91 95 94 94 88 89 89 93 94 94 95 96 95 96 98 98 96 97 98 98 99 97 96 96 93 93 93 94 94 92 91 90
25 23 22 42 56 60 71 81 84 88 90 86 85 84 84 83 82 84 87 93 95 96 96 95 94 97 98 98 98 98 96 94 96 96 94 93 79 83 88 94 93 93 93
23 21 25 30 52 54 61 75 80 82 86 83 87 98 97 98 96 92 89 88 93 95 96 95 95 97 98 97 97 96 94 96 98 94 94 94 92 86 85 85 89 89 93
35 31 27 31 37 40 47 62 72 79 86 87 91 90 88 92 89 91 92 89 93 95 95 96 97 97 98 97 96 97 96 97 97 100 99 97 93 95 90 92 88 90 90
44 40 34 32 56 66 57 70 80 89 93 91 90 92 93 89 96 97 97 98 98 96 96 96 96 97 97 96 96 99 99 99 98 97 99 99 100 99 98 91 87 88 88
55 58 74 69 78 89 92 94 95 98 98 93 95 96 95 96 98 98 98 98 97 97 97 96 96 95 96 97 97 96 98 97 96 97 98 98 98 99 99 99 96 95 91
47 55 66 83 87 91 95 97 94 96 98 97 96 96 94 95 96 95 95 96 97 98 97 97 96 96 94 96 97 98 98 96 98 98 98 96 94 94 95 96 98 98 95
39 43 48 67 83 89 95 97 97 95 98 96 96 95 94 95 94 93 94 94 94 94 93 96 95 94 95 98 98 99 98 98 98 98 97 95 89 95 95 93 88 90 94
39 39 41 54 68 84 91 95 96 96 97 97 96 96 96 95 95 94 96 95 95 95 96 96 96 96 99 98 98 99 99 97 96 94 92 91 94 95 96 92 91 94 98
38 38 41 44 53 67 83 90 94 94 93 96 96 96 96 95 95 96 97 96 95 96 97 98 98 99 99 98 98 99 98 98 98 96 96 96 96 95 95 95 96 98 97
41 40 40 40 41 55 67 81 90 91 94 95 95 96 96 92 90 92 93 93 91 94 97 98 99 99 98 98 98 98 98 97 96 96 94 93 92 93 95 98 98 99 99
43 43 44 46 47 47 55 66 74 86 83 85 94 96 95 95 92 91 93 93 93 94 96 98 99 98 98 98 98 98 95 94 95 93 91 88 90 93 95 98 98 97 96
42 42 43 42 42 45 52 61 71 75 73 87 93 95 97 96 93 92 92 94 96 98 99 99 98 98 98 98 96 93 93 90 88 89 85 83 89 93 97 95 95 94 95
44 46 46 45 48 46 51 51 68 80 79 90 92 92 94 95 96 96 98 97 98 98 98 98 98 97 97 97 95 91 92 89 84 85 86 88 91 93 93 94 94 95 97
51 53 57 59 57 54 55 57 66 74 84 90 93 89 84 89 92 95 95 96 98 98 97 98 98 97 97 95 93 92 86 81 86 90 91 92 91 91 93 95 96 98 99
57 56 56 59 62 64 66 65 65 66 70 82 91 90 92 94 93 92 96 99 99 98 97 98 98 98 97 97 93 87 81 81 88 93 96 94 96 96 97 100 100 97 98
54 54 54 60 65 66 69 72 76 80 84 89 92 93 94 96 96 97 99 99 99 99 98 97 96 96 94 92 91 93 88 93 94 94 96 99 97 98 96 96 100 99 100
59 59 60 63 69 72 71 72 70 71 73 75 78 84 91 96 97 98 98 98 98 98 98 97 94 92 89 93 95 94 95 96 96 96 96 97 98 97 97 99 99 99 99
69 69 66 66 72 69 68 63 63 68 69 75 77 78 84 90 94 96 97 97 97 97 95 94 92 90 92 97 98 96 97 97 98 98 98 98 98 97 98 100 100 100 100
75 80 74 62 62 65 70 69 72 68 70 75 81 81 86 89 91 94 95 95 95 95 95 94 92 94 98 99 98 97 98 99 99 99 99 99 97 97 100 99 99 100 100
82 81 85 82 75 73 76 75 78 76 80 78 78 78 79 84 87 92 92 92 94 96 98 99 97 95 97 99 99 99 98 98 99 99 99 98 96 95 97 98 99 99 99
83 82 87 89 83 76 82 84 88 88 85 85 84 84 86 85 85 91 93 95 97 98 99 99 100 99 99 99 100 100 99 99 98 99 99 99 96 94 96 98 100 100 100
82 80 85 90 88 87 89 94 94 92 92 90 93 94 94 96 97 97 98 99 97 99 99 99 99 100 100 100 100 100 100 100 99 100 98 95 94 95 99 99 98 100 100
81 83 88 94 95 91 92 95 93 94 93 94 95 96 98 98 98 98 99 99 99 99 99 99 100 100 100 100 100 100 100 99 99 100 100 100 100 100 100 100 100 100 100
88 90 94 95 95 88 88 88 93 92 95 94 95 97 96 96 97 99 100 99 100 100 100 100 100 100 100 100 99 99 100 100 99 100 100 100 100 100 100 99 99 99 99
91 89 87 87 92 93 95 92 89 89 91 96 96 97 97 97 97 99 99 98 99 99 99 100 100 100 100 99 98 98 97 95 97 100 99 100 100 99 99 99 99 99 99

GFSMW_sfc_rhum_249.txt.gz
RH
25 32 40 45 50 54 63 64 70 74 74 72 73 71 73 70 70 68 70 72 72 74 76 70 72 76 74 74 78 76 82 78 77 85 82 85 87 89 94 96 91 81 75
18 18 21 31 52 52 62 63 66 71 73 66 68 65 68 67 67 66 71 73 75 75 74 75 73 78 84 84 83 85 81 78 76 87 90 97 83 91 94 94 96 92 86
24 24 26 28 30 48 58 62 64 67 72 68 67 73 73 73 75 71 70 71 79 86 84 83 83 84 90 90 90 90 90 88 88 90 93 98 95 93 95 95 93 82 89
32 32 34 32 29 37 50 55 59 65 70 72 71 77 70 72 68 68 70 72 83 88 89 90 89 90 91 94 92 93 94 94 96 99 95 92 92 98 98 97 95 88 88
38 40 49 44 28 35 39 52 58 64 69 74 72 76 76 70 67 75 81 81 86 87 89 91 89 91 94 95 94 94 97 96 96 98 98 98 99 96 96 96 98 96 93
35 37 49 52 48 63 61 58 58 64 72 78 79 80 83 81 84 85 87 87 86 89 90 91 93 92 94 96 95 94 96 96 97 97 94 93 96 96 98 99 96 92 78
34 33 34 44 59 62 71 74 69 73 79 81 81 82 84 84 84 81 82 81 82 87 89 90 91 90 91 93 93 95 97 97 98 97 97 93 94 96 91 92 95 92 84
33 30 30 36 44 61 69 79 78 73 78 82 82 82 84 83 80 79 77 79 78 76 78 84 86 84 86 90 94 97 98 98 98 97 96 95 93 92 85 77 88 74 67
31 30 30 33 38 43 52 71 73 73 75 81 83 85 86 86 82 81 82 81 80 81 81 83 84 84 85 88 92 98 98 98 98 97 94 93 94 91 90 82 67 72 75
28 30 30 34 35 38 47 55 66 67 69 78 82 83 83 83 83 83 86 84 82 82 84 86 87 88 90 92 97 99 98 98 98 97 96 92 90 90 89 92 76 64 62
31 32 36 37 38 42 42 48 50 51 60 70 77 82 84 83 84 86 85 86 87 86 86 86 89 92 96 97 98 98 99 98 97 93 92 92 91 90 88 84 72 69 76
34 34 36 39 42 46 44 43 50 52 57 61 69 79 82 82 85 87 86 88 87 85 82 88 95 97 98 98 98 98 96 98 98 95 91 90 86 86 86 78 74 74 78
43 42 45 48 49 51 53 52 52 54 55 57 71 76 81 83 85 84 88 87 88 89 89 92 97 97 97 98 97 98 98 97 92 91 91 85 86 85 80 74 75 79 87
51 52 50 53 53 54 55 55 60 62 59 64 68 72 75 79 84 87 88 86 84 86 92 97 96 97 98 98 97 98 98 96 93 91 90 86 80 75 79 90 83 84 83
45 46 50 52 50 53 52 52 58 62 65 66 69 76 76 76 74 80 81 83 87 93 95 97 97 97 97 98 98 97 95 95 94 92 83 80 75 83 84 79 86 81 82
44 44 46 50 53 53 54 51 55 60 57 58 60 62 69 79 82 83 84 86 88 89 92 97 96 97 98 100 100 97 93 93 91 89 84 74 92 93 95 94 93 91 93
47 49 51 54 55 57 58 55 56 54 56 58 56 60 63 65 73 80 89 94 97 98 98 98 98 98 97 100 100 100 94 94 92 89 85 86 96 96 94 99 100 100 100
54 58 58 57 59 57 56 56 53 54 58 58 57 58 62 61 62 67 73 80 83 90 95 97 98 98 97 100 100 99 97 98 98 98 98 98 99 99 98 99 99 99 96
64 65 62 59 57 56 56 55 59 58 59 63 62 62 64 62 64 68 74 78 81 81 83 83 88 92 91 99 99 95 96 98 99 99 99 97 99 100 99 100 100 100 100
61 60 64 55 56 64 60 64 69 69 70 70 68 64 66 67 68 71 74 75 75 78 81 80 82 93 91 99 97 93 93 97 97 99 99 100 98 100 100 99 99 100 100
59 63 61 63 68 68 70 76 79 81 77 71 68 70 70 71 74 74 76 80 81 83 93 94 94 94 96 98 99 98 96 97 99 99 100 100 100 100 100 99 99 98 98
65 66 66 74 73 71 73 77 84 82 74 73 74 75 79 77 76 80 80 83 88 96 98 98 99 98 98 99 99 99 98 99 98 99 100 99 98 98 98 99 98 99 100
67 65 69 78 80 81 85 88 87 85 82 80 85 88 89 88 86 91 89 93 93 97 98 98 98 99 99 99 99 100 100 100 100 100 99 98 97 97 100 98 99 100 100
75 74 80 88 88 83 83 84 84 79 82 82 89 91 92 89 92 94 96 97 99 100 100 100 100 100 100 100 100 100 100 99 100 100 100 100 99 98 99 100 100 100 100
90 86 86 83 84 83 84 82 82 79 82 81 82 89 90 90 93 96 100 100 100 100 100 100 100 100 100 100 100 100 100 100 100 100 100 100 100 100 100 100 100 100 99
82 78 80 86 91 89 88 84 84 84 90 94 95 96 96 97 96 95 95 92 96 96 99 99 100 100 100 99 98 98 99 98 98 100 100 100 100 100 100 100 100 100 99

GFSMW_sfc_rhum_255.txt.gz
RH
10 10 10 12 14 16 19 24 35 46 48 48 51 51 47 44 44 43 46 47 48 54 60 54 55 56 55 57 60 60 65 58 61 67 66 59 64 70 76 84 77 57 55
10 11 12 13 16 18 22 25 30 38 44 44 46 45 46 41 40 40 46 46 50 54 54 60 55 55 54 62 63 65 61 63 62 73 80 86 76 85 83 71 70 77 74
13 14 15 16 17 19 23 25 28 34 42 47 45 47 47 46 43 42 42 46 51 54 59 58 60 59 58 57 67 68 70 68 67 73 83 98 98 79 86 94 98 97 95
16 19 20 20 22 23 23 22 26 31 37 46 48 54 48 48 43 44 39 41 51 55 56 63 62 65 59 63 63 64 70 74 74 82 82 80 77 84 96 86 94 96 93
18 21 22 22 25 24 26 27 24 26 34 39 50 52 56 51 47 46 49 51 53 55 59 64 68 69 65 68 70 73 79 73 77 81 93 98 98 98 98 98 98 95 86
18 19 22 24 28 35 35 35 33 31 34 42 48 58 64 60 58 56 56 54 53 56 62 66 71 72 74 75 77 81 85 87 88 88 94 95 97 98 98 98 97 95 92
18 17 18 20 24 30 37 38 36 38 40 46 50 56 61 64 65 64 60 59 56 57 62 76 85 84 83 84 84 86 90 91 94 94 96 96 93 91 94 96 97 98 97
18 17 17 18 20 24 30 33 29 30 37 44 48 52 54 54 55 56 58 57 56 55 58 73 81 84 87 89 89 92 93 95 97 96 96 98 94 94 94 94 95 99 97
16 16 18 20 23 24 31 36 30 25 27 31 37 43 49 53 54 59 62 61 63 56 61 75 80 83 87 90 93 95 95 96 96 97 96 96 96 96 95 93 92 94 98
15 17 19 23 25 29 35 40 36 34 34 37 39 38 42 45 50 58 66 69 69 66 66 70 77 87 90 88 91 92 91 93 95 97 98 98 97 96 96 96 93 88 89
18 20 24 26 31 32 36 40 42 43 46 45 47 53 54 55 56 60 64 68 74 77 81 77 74 78 81 85 89 88 88 95 96 98 98 98 96 98 97 97 94 90 87
20 22 25 30 34 35 34 38 42 43 47 49 54 61 61 58 58 59 61 73 81 82 84 82 80 77 83 88 91 91 92 93 96 97 98 98 98 98 96 97 95 91 80
24 26 28 30 32 35 36 36 40 40 39 39 46 55 56 56 63 68 72 75 80 82 84 82 87 84 80 74 80 80 88 93 94 96 98 98 97 97 97 96 95 90 78
26 29 33 36 35 35 36 37 40 42 40 39 43 50 51 50 52 53 57 63 70 77 83 79 81 86 92 94 92 92 91 96 96 97 96 96 96 93 94 96 93 88 86
27 32 34 35 36 38 38 37 40 40 40 40 42 47 46 44 47 50 52 54 57 58 60 66 74 88 95 98 99 98 98 98 97 95 91 93 94 98 95 92 92 89 87
27 31 33 33 36 38 38 39 40 41 39 40 42 44 43 41 45 47 49 51 56 58 60 62 64 72 82 99 98 99 98 98 98 98 95 95 100 99 100 100 100 97 91
28 30 32 37 40 40 39 38 37 39 39 39 38 40 42 42 46 47 48 51 55 58 60 61 61 66 84 96 96 97 86 98 98 98 98 99 99 100 99 100 100 100 100
30 33 37 40 39 36 36 36 34 36 40 39 39 41 44 44 46 48 52 56 58 61 63 64 70 75 77 96 96 98 91 96 97 98 98 99 99 99 99 99 99 99 99
36 39 38 39 40 39 39 38 38 39 41 43 43 43 44 44 46 50 55 57 59 67 73 78 85 85 82 95 94 87 89 91 95 94 96 97 98 99 95 96 99 100 100
37 36 37 39 43 44 43 46 47 47 50 50 49 47 46 46 51 54 59 61 63 73 84 86 88 91 79 96 94 84 76 84 87 91 94 100 97 100 100 98 99 99 100
36 37 39 43 44 44 46 55 58 60 54 52 50 52 51 51 56 60 62 65 70 76 85 84 84 82 88 85 95 95 78 85 83 85 90 90 96 96 97 98 97 99 98
40 39 45 50 50 47 50 55 59 58 52 56 60 61 65 60 63 72 74 76 82 87 88 84 88 85 82 96 95 95 97 95 90 96 96 96 95 96 96 98 97 98 100
41 41 47 53 55 55 54 60 62 57 59 63 67 68 67 66 68 79 81 84 84 87 89 96 98 98 96 97 98 99 99 98 98 100 100 97 97 98 100 99 99 100 100
48 49 53 61 66 61 60 65 65 59 61 66 66 63 73 75 78 81 84 84 88 90 98 99 99 99 99 99 98 100 99 99 100 100 100 100 100 99 100 100 100 100 100
56 56 64 65 63 60 62 62 60 58 59 60 60 62 70 73 74 76 91 91 97 92 97 100 100 100 100 100 99 99 100 100 100 100 100 100 100 100 100 100 98 100 100
65 66 65 61 59 57 58 57 56 54 58 55 56 71 71 73 72 77 81 79 92 92 92 91 99 100 97 97 96 92 96 97 98 100 100 100 100 100 100 100 97 100 100

GFSMW_sfc_rhum_258.txt.gz
RH
13 13 18 19 21 23 31 37 49 57 59 64 70 70 69 64 62 57 61 60 62 68 70 69 70 72 67 68 72 74 74 71 77 68 70 74 79 80 84 92 89 84 75
13 16 18 29 28 26 30 40 46 55 54 56 61 66 66 62 58 57 58 62 63 65 67 71 70 69 69 73 72 74 74 72 72 76 90 91 88 84 91 90 86 88 84
17 21 21 28 30 32 37 35 40 51 55 55 58 62 67 65 61 59 58 59 61 64 66 70 70 71 71 71 72 74 75 76 75 77 86 98 97 95 97 97 98 96 97
20 22 27 28 32 37 43 41 38 44 52 58 57 63 60 62 58 61 59 55 62 61 63 68 69 74 72 73 74 73 76 79 80 90 79 80 92 98 99 98 98 98 99
22 25 27 32 33 35 39 42 40 36 53 57 61 65 69 67 64 66 66 71 70 67 64 68 74 78 76 75 76 80 83 81 82 82 91 91 91 94 98 96 98 98 97
24 25 29 36 43 50 54 52 43 37 45 56 68 71 74 74 75 74 77 77 76 79 76 72 74 78 83 77 79 79 83 82 87 88 90 94 99 99 99 99 99 97 98
25 27 28 31 42 54 58 53 52 54 53 57 61 66 74 77 79 78 77 77 76 78 79 83 84 80 82 83 83 88 90 90 93 92 90 92 98 96 96 97 98 98 97
28 25 27 31 36 45 50 51 50 56 56 58 62 65 67 74 74 74 72 73 74 74 76 80 83 85 86 90 93 95 94 94 96 94 96 95 96 97 96 94 98 100 99
26 25 28 35 38 46 52 53 44 43 49 54 61 62 66 67 70 72 76 79 79 73 77 80 79 88 91 91 94 96 95 96 97 96 96 98 98 98 98 97 97 97 96
22 24 29 37 39 49 57 60 55 54 55 59 65 64 69 71 73 76 78 78 80 81 84 86 87 87 91 94 95 97 96 97 97 97 97 96 97 99 99 98 98 98 98
24 29 34 39 43 50 55 60 58 59 64 67 72 77 76 74 76 78 79 84 85 85 85 84 90 94 95 89 97 97 96 98 96 97 98 97 98 99 99 99 99 98 98
30 30 34 43 46 47 49 52 57 54 59 62 66 71 70 70 74 78 81 85 88 89 89 91 92 92 95 96 96 97 98 98 99 97 99 98 99 99 99 99 99 98 96
30 33 37 42 43 48 50 51 53 55 54 55 63 67 69 66 70 71 70 71 72 75 80 82 87 90 92 94 95 98 98 98 97 97 99 98 99 98 98 98 98 96 95
31 35 41 45 45 45 47 48 53 56 52 50 54 64 65 64 64 66 68 69 67 69 71 75 76 82 88 86 86 87 94 95 97 97 96 94 98 98 98 98 97 96 98
30 36 43 45 46 50 49 48 50 50 50 49 52 59 59 56 59 62 62 67 69 67 68 72 74 88 84 83 92 88 89 95 97 97 96 98 99 100 99 97 96 96 98
32 33 37 39 42 43 46 45 48 50 48 48 48 49 50 49 58 61 62 65 68 71 74 76 80 88 78 95 96 98 95 93 96 97 96 93 97 98 100 100 100 100 99
28 34 36 41 46 47 45 45 45 47 46 45 43 46 48 48 55 54 58 63 71 75 77 83 84 83 86 94 95 95 92 95 96 98 98 96 93 96 96 99 100 100 100
29 34 42 46 46 43 43 45 41 46 46 46 45 46 47 47 51 56 63 68 70 78 80 80 83 82 78 92 92 95 92 95 95 96 96 97 96 96 95 95 97 97 98
35 42 44 44 47 46 45 44 46 47 49 50 50 49 50 50 56 62 69 72 76 76 82 83 84 86 87 92 94 91 86 86 92 89 94 94 96 98 96 96 97 97 99
42 42 45 46 49 52 51 55 55 56 56 55 53 52 54 57 64 70 72 69 69 71 81 79 84 87 88 96 94 92 83 90 88 89 89 95 95 96 96 98 98 99 100
41 43 45 49 50 52 57 65 64 63 59 58 58 62 62 62 69 68 74 76 79 81 82 83 87 90 95 93 96 97 90 95 94 97 98 98 95 95 95 97 99 100 99
44 46 53 56 54 52 57 62 64 63 60 64 66 65 65 63 64 74 76 75 80 83 86 89 94 94 91 94 96 97 99 99 97 99 99 99 95 95 97 99 99 99 100
49 51 56 59 58 59 60 66 66 62 65 66 67 68 74 71 72 77 80 85 81 85 86 85 88 89 88 90 94 90 90 90 97 98 99 98 96 99 100 99 99 100 100
54 57 61 62 66 62 61 64 61 58 60 63 65 67 73 71 70 76 77 80 82 86 84 84 89 93 94 96 95 92 93 97 99 100 100 100 100 99 99 100 99 100 100
61 60 63 65 64 62 61 58 56 56 54 57 62 69 72 73 77 76 82 85 97 97 98 98 99 99 99 99 97 94 97 99 100 100 100 100 100 100 100 100 100 100 100
64 63 62 60 60 59 62 59 57 55 59 58 62 77 73 74 73 76 79 74 91 85 83 84 96 100 99 89 87 88 86 92 98 100 100 100 100 99 99 99 99 99 100

GFSMW_sfc_rhum_264.txt.gz
RH
17 16 18 18 23 30 33 44 53 59 69 71 75 76 76 76 82 82 74 80 80 78 78 76 80 92 81 81 88 82 84 80 93 94 77 77 81 88 80 85 74 65 71
18 19 22 26 34 27 33 42 49 57 67 65 70 75 73 76 74 81 84 80 82 84 80 79 80 86 84 81 87 90 84 80 91 82 96 90 81 87 79 77 86 90 95
21 25 32 42 52 54 55 44 48 57 66 66 73 93 91 91 90 88 82 81 81 82 83 83 81 82 82 80 81 82 87 85 78 88 91 97 94 93 96 96 99 99 99
24 32 38 39 44 45 60 67 56 64 65 71 78 78 81 82 80 77 76 77 82 80 79 81 82 82 84 84 81 86 91 92 90 94 86 78 87 89 89 99 99 98 96
34 37 40 44 46 45 44 64 72 70 72 76 75 78 88 84 93 93 86 85 84 81 78 82 87 87 82 84 86 86 92 94 92 91 90 93 95 92 96 95 99 99 99
31 44 49 50 59 66 64 52 71 70 74 76 80 79 82 92 90 91 92 89 88 88 86 85 91 91 92 93 90 92 94 94 94 90 91 93 95 94 98 98 97 95 98
41 56 60 57 61 66 70 66 70 80 80 77 82 88 89 86 87 87 90 91 93 94 93 93 94 95 93 91 91 92 92 94 96 94 93 93 94 94 98 97 96 99 98
41 57 61 66 66 66 68 72 75 77 85 85 90 90 91 93 89 89 90 95 97 97 96 96 95 94 94 96 97 97 96 95 97 95 95 95 90 94 94 97 98 99 99
50 61 69 66 62 64 70 68 66 70 74 78 81 88 88 88 92 96 95 96 96 88 97 96 97 97 97 97 98 99 98 98 98 98 97 97 90 90 97 98 98 97 99
32 52 62 63 66 66 72 78 80 84 86 86 86 87 89 89 88 88 94 92 92 92 94 95 95 92 91 91 91 91 93 94 96 97 97 96 95 94 98 98 98 99 98
34 46 64 71 72 76 82 85 84 82 81 78 79 79 79 77 79 80 83 86 86 89 90 94 86 86 86 88 90 90 88 91 93 94 95 95 94 97 96 94 99 99 100
56 69 74 79 79 81 80 78 76 77 79 75 76 78 76 75 75 78 78 81 84 87 91 85 82 83 86 90 93 94 93 89 92 92 94 96 92 95 95 98 98 98 98
70 74 75 71 73 77 78 74 73 72 70 72 73 73 73 73 76 77 80 81 84 91 86 85 84 86 89 91 91 86 84 88 86 90 90 92 94 96 96 96 96 95 96
62 69 69 76 77 76 75 73 71 66 64 65 68 74 74 74 75 78 82 84 84 85 84 82 83 83 84 89 87 83 88 88 86 86 90 91 92 97 97 93 97 94 96
60 68 72 71 69 71 70 64 65 63 64 66 68 74 76 75 76 82 82 85 86 84 83 84 87 84 83 87 96 91 89 87 85 83 89 92 91 93 97 96 97 97 97
40 55 62 63 65 63 61 61 63 66 60 63 68 68 72 74 80 82 83 86 88 89 91 92 92 91 80 87 92 95 90 86 90 94 92 92 92 93 94 94 97 99 98
60 59 63 68 64 62 62 66 68 63 60 62 65 71 74 78 81 79 80 84 89 89 94 95 96 95 93 94 90 91 87 91 90 96 97 92 90 94 94 94 93 95 96
64 70 73 71 67 63 64 65 62 63 64 67 71 74 76 77 77 80 84 84 77 81 90 90 87 91 90 94 92 95 80 88 92 95 96 97 94 94 96 91 89 93 96
66 73 74 72 75 78 79 73 66 67 70 74 77 77 77 81 84 88 87 83 83 80 81 83 88 89 86 93 85 87 91 93 94 91 95 95 97 95 94 94 97 90 89
73 68 68 71 75 76 74 79 81 78 79 77 78 77 78 80 82 80 80 76 73 75 80 78 80 83 85 89 88 84 84 91 88 83 82 90 96 97 96 98 99 98 98
69 68 71 79 81 77 78 85 84 84 78 79 78 75 74 76 74 73 71 70 72 72 76 74 82 78 79 82 91 83 82 90 93 91 92 92 97 98 97 96 97 96 96
80 80 85 88 86 82 82 88 89 83 78 78 78 74 72 65 65 69 68 68 74 79 78 78 84 92 92 93 84 82 80 83 93 95 96 98 98 98 98 99 97 97 98
77 72 76 79 75 70 70 80 82 77 77 78 84 84 81 75 67 71 87 94 88 92 84 90 89 93 97 97 87 89 81 89 94 92 93 97 98 99 99 99 99 99 99
95 80 82 86 89 85 85 81 77 74 76 80 80 80 86 75 73 79 84 91 97 92 91 94 94 95 96 97 97 96 96 90 91 95 96 99 99 99 99 100 100 99 99
84 74 80 85 89 84 80 70 69 68 71 74 76 81 84 84 87 86 90 88 88 87 95 96 91 95 94 94 86 88 92 93 92 98 98 99 99 98 96 97 97 98 98
99 94 98 93 82 72 71 70 69 66 66 72 80 86 86 86 87 89 88 80 82 81 86 74 79 85 76 73 74 74 78 88 86 91 93 98 96 98 98 98 98 99 98